• In Deutschland
  • Länderverzeichnis
  • Für 7 Tage
  • Wassertemperatur
  • Satellitenkarten
  • Wetterkarte
  • Widgets
  • user-avatar
    Anmelden

    Stündliche Wetter Krefeld

    Heute, 23 Juni, Samstag

    Zeit Temperatur Niederschläge Wind Luftdruck Luftfeuchtigkeit
    00:00 +10°C° 0 mm 2 m/S 767 mmHg 84%
    01:00 +9°C° 0 mm 2 m/S 766 mmHg 85%
    02:00 +9°C° 0 mm 2 m/S 766 mmHg 86%
    03:00 +9°C° 0 mm 3 m/S 766 mmHg 87%
    04:00 +10°C° 0 mm 3 m/S 766 mmHg 84%
    05:00 +11°C° 0 mm 3 m/S 766 mmHg 81%
    06:00 +12°C° 0 mm 3 m/S 766 mmHg 78%
    07:00 +12°C° 0 mm 3 m/S 766 mmHg 76%
    08:00 +13°C° 0 mm 3 m/S 766 mmHg 74%
    09:00 +14°C° 0 mm 3 m/S 766 mmHg 72%
    10:00 +14°C° 0 mm 3 m/S 766 mmHg 69%
    11:00 +16°C° 0 mm 3 m/S 766 mmHg 67%
    12:00 +17°C° 0 mm 3 m/S 766 mmHg 64%
    13:00 +17°C° 0 mm 3 m/S 766 mmHg 62%
    14:00 +18°C° 0 mm 3 m/S 765 mmHg 61%
    15:00 +18°C° 0 mm 3 m/S 765 mmHg 60%
    16:00 +18°C° 0 mm 2 m/S 765 mmHg 61%
    17:00 +18°C° 0 mm 2 m/S 765 mmHg 63%
    18:00 +18°C° 0 mm 2 m/S 764 mmHg 65%
    19:00 +17°C° 0 mm 2 m/S 764 mmHg 69%
    20:00 +16°C° 0 mm 2 m/S 764 mmHg 72%
    21:00 +15°C° 0 mm 2 m/S 765 mmHg 76%
    22:00 +14°C° 0,1 mm 1 m/S 765 mmHg 79%
    23:00 +14°C° 0,1 mm 1 m/S 764 mmHg 83%

    Morgen, 24 Juni, Sonntag

    Zeit Temperatur Niederschläge Wind Luftdruck Luftfeuchtigkeit
    00:00 +13°C° 0,1 mm 1 m/S 764 mmHg 86%
    01:00 +13°C° 0 mm 1 m/S 764 mmHg 87%
    02:00 +13°C° 0 mm 1 m/S 764 mmHg 88%
    03:00 +12°C° 0 mm 1 m/S 764 mmHg 89%
    04:00 +13°C° 0 mm 2 m/S 764 mmHg 87%
    05:00 +13°C° 0 mm 2 m/S 764 mmHg 85%
    06:00 +14°C° 0 mm 2 m/S 764 mmHg 83%
    07:00 +15°C° 0 mm 2 m/S 764 mmHg 75%
    08:00 +16°C° 0 mm 2 m/S 764 mmHg 68%
    09:00 +17°C° 0 mm 2 m/S 764 mmHg 61%
    10:00 +18°C° 0 mm 2 m/S 764 mmHg 57%
    11:00 +19°C° 0 mm 3 m/S 764 mmHg 53%
    12:00 +21°C° 0 mm 3 m/S 764 mmHg 49%
    13:00 +20°C° 0 mm 3 m/S 764 mmHg 52%
    14:00 +20°C° 0 mm 3 m/S 764 mmHg 55%
    15:00 +20°C° 0 mm 4 m/S 763 mmHg 58%
    16:00 +20°C° 0 mm 4 m/S 763 mmHg 61%
    17:00 +19°C° 0 mm 3 m/S 763 mmHg 64%
    18:00 +19°C° 0 mm 3 m/S 763 mmHg 67%
    19:00 +18°C° 0 mm 3 m/S 764 mmHg 72%
    20:00 +17°C° 0 mm 3 m/S 764 mmHg 77%
    21:00 +16°C° 0 mm 2 m/S 764 mmHg 81%
    22:00 +15°C° 0 mm 2 m/S 764 mmHg 83%
    23:00 +15°C° 0 mm 2 m/S 764 mmHg 84%

    übermorgen, 25 Juni, Montag

    Zeit Temperatur Niederschläge Wind Luftdruck Luftfeuchtigkeit
    00:00 +15°C° 0 mm 2 m/S 764 mmHg 85%
    01:00 +14°C° 0 mm 2 m/S 764 mmHg 87%
    02:00 +14°C° 0 mm 2 m/S 764 mmHg 88%
    03:00 +13°C° 0 mm 2 m/S 764 mmHg 90%
    04:00 +14°C° 0 mm 2 m/S 764 mmHg 86%
    05:00 +15°C° 0 mm 2 m/S 764 mmHg 82%
    06:00 +16°C° 0 mm 2 m/S 764 mmHg 79%
    07:00 +17°C° 0 mm 2 m/S 764 mmHg 70%
    08:00 +19°C° 0 mm 2 m/S 764 mmHg 62%
    09:00 +20°C° 0 mm 2 m/S 764 mmHg 54%
    10:00 +21°C° 0 mm 3 m/S 764 mmHg 49%
    11:00 +24°C° 0 mm 3 m/S 764 mmHg 43%
    12:00 +25°C° 0 mm 3 m/S 764 mmHg 38%
    13:00 +25°C° 0 mm 3 m/S 764 mmHg 38%
    14:00 +25°C° 0 mm 3 m/S 764 mmHg 38%
    15:00 +26°C° 0 mm 3 m/S 764 mmHg 38%
    16:00 +25°C° 0 mm 3 m/S 764 mmHg 43%
    17:00 +24°C° 0 mm 3 m/S 764 mmHg 48%
    18:00 +24°C° 0 mm 3 m/S 764 mmHg 53%
    19:00 +21°C° 0 mm 3 m/S 765 mmHg 60%
    20:00 +19°C° 0 mm 3 m/S 765 mmHg 67%
    21:00 +18°C° 0 mm 3 m/S 765 mmHg 74%
    22:00 +17°C° 0 mm 3 m/S 765 mmHg 78%
    23:00 +16°C° 0 mm 2 m/S 765 mmHg 82%

    26 Juni, Dienstag

    Zeit Temperatur Niederschläge Wind Luftdruck Luftfeuchtigkeit
    00:00 +15°C° 0 mm 2 m/S 765 mmHg 86%
    01:00 +15°C° 0 mm 2 m/S 765 mmHg 86%
    02:00 +14°C° 0 mm 2 m/S 765 mmHg 87%
    03:00 +14°C° 0 mm 2 m/S 765 mmHg 87%
    04:00 +14°C° 0 mm 2 m/S 765 mmHg 83%
    05:00 +15°C° 0 mm 2 m/S 765 mmHg 79%
    06:00 +16°C° 0 mm 2 m/S 765 mmHg 75%
    07:00 +18°C° 0 mm 2 m/S 766 mmHg 67%
    08:00 +19°C° 0 mm 2 m/S 766 mmHg 59%
    09:00 +21°C° 0 mm 2 m/S 766 mmHg 51%
    10:00 +22°C° 0 mm 3 m/S 765 mmHg 48%
    11:00 +25°C° 0 mm 3 m/S 765 mmHg 44%
    12:00 +26°C° 0 mm 3 m/S 765 mmHg 41%
    13:00 +26°C° 0 mm 3 m/S 765 mmHg 41%
    14:00 +27°C° 0 mm 4 m/S 765 mmHg 42%
    15:00 +27°C° 0 mm 4 m/S 764 mmHg 42%
    16:00 +26°C° 0 mm 4 m/S 764 mmHg 46%
    17:00 +26°C° 0 mm 3 m/S 764 mmHg 50%
    18:00 +25°C° 0 mm 3 m/S 764 mmHg 55%
    19:00 +24°C° 0 mm 3 m/S 765 mmHg 60%
    20:00 +21°C° 0 mm 3 m/S 765 mmHg 66%
    21:00 +20°C° 0 mm 3 m/S 765 mmHg 71%
    22:00 +19°C° 0 mm 3 m/S 765 mmHg 75%
    23:00 +18°C° 0 mm 2 m/S 765 mmHg 79%

    27 Juni, Mittwoch

    Zeit Temperatur Niederschläge Wind Luftdruck Luftfeuchtigkeit
    00:00 +17°C° 0 mm 2 m/S 765 mmHg 83%
    01:00 +17°C° 0 mm 2 m/S 765 mmHg 84%
    02:00 +16°C° 0 mm 2 m/S 765 mmHg 86%
    03:00 +16°C° 0 mm 2 m/S 765 mmHg 87%
    04:00 +17°C° 0 mm 2 m/S 765 mmHg 83%
    05:00 +18°C° 0 mm 2 m/S 765 mmHg 79%
    06:00 +19°C° 0 mm 2 m/S 765 mmHg 75%
    07:00 +21°C° 0 mm 2 m/S 765 mmHg 68%
    08:00 +24°C° 0 mm 2 m/S 765 mmHg 61%
    09:00 +26°C° 0 mm 2 m/S 765 mmHg 54%
    10:00 +27°C° 0 mm 2 m/S 764 mmHg 50%
    11:00 +28°C° 0 mm 2 m/S 764 mmHg 45%
    12:00 +30°C° 0 mm 2 m/S 764 mmHg 41%
    13:00 +30°C° 0 mm 3 m/S 763 mmHg 40%
    14:00 +30°C° 0 mm 3 m/S 763 mmHg 40%
    15:00 +31°C° 0 mm 3 m/S 763 mmHg 39%
    16:00 +30°C° 0 mm 3 m/S 763 mmHg 43%
    17:00 +29°C° 0 mm 3 m/S 763 mmHg 47%
    18:00 +28°C° 0 mm 3 m/S 762 mmHg 52%
    19:00 +27°C° 0 mm 3 m/S 763 mmHg 55%
    20:00 +25°C° 0 mm 3 m/S 763 mmHg 59%
    21:00 +24°C° 0 mm 3 m/S 763 mmHg 63%
    22:00 +22°C° 0 mm 3 m/S 763 mmHg 65%
    23:00 +22°C° 0 mm 3 m/S 763 mmHg 67%

    28 Juni, Donnerstag

    Zeit Temperatur Niederschläge Wind Luftdruck Luftfeuchtigkeit
    00:00 +21°C° 0 mm 2 m/S 763 mmHg 70%
    01:00 +20°C° 0 mm 2 m/S 763 mmHg 71%
    02:00 +19°C° 0 mm 2 m/S 763 mmHg 72%
    03:00 +19°C° 0 mm 2 m/S 763 mmHg 73%
    04:00 +19°C° 0 mm 2 m/S 763 mmHg 69%
    05:00 +20°C° 0 mm 2 m/S 763 mmHg 65%
    06:00 +21°C° 0 mm 3 m/S 763 mmHg 61%
    07:00 +22°C° 0 mm 3 m/S 763 mmHg 54%
    08:00 +25°C° 0 mm 3 m/S 763 mmHg 48%
    09:00 +27°C° 0 mm 4 m/S 763 mmHg 41%
    10:00 +28°C° 0 mm 4 m/S 763 mmHg 39%
    11:00 +29°C° 0 mm 4 m/S 762 mmHg 37%
    12:00 +30°C° 0 mm 4 m/S 762 mmHg 35%
    13:00 +30°C° 0 mm 5 m/S 762 mmHg 36%
    14:00 +30°C° 0 mm 5 m/S 761 mmHg 37%
    15:00 +30°C° 0 mm 5 m/S 761 mmHg 38%
    16:00 +29°C° 0 mm 5 m/S 761 mmHg 42%
    17:00 +28°C° 0 mm 5 m/S 761 mmHg 46%
    18:00 +27°C° 0 mm 4 m/S 761 mmHg 50%
    19:00 +26°C° 0 mm 4 m/S 761 mmHg 53%
    20:00 +25°C° 0 mm 4 m/S 761 mmHg 57%
    21:00 +22°C° 0 mm 3 m/S 762 mmHg 60%
    22:00 +22°C° 0 mm 3 m/S 762 mmHg 63%
    23:00 +21°C° 0 mm 3 m/S 762 mmHg 65%
    Mehr zeigen